When you browse on this site, cookies collect data to enhance your experience and personalize the content and advertising you see.
Visit our Privacy Policy to learn more. By continuing to use the site, you agree to this use of cookies and data.
  • în România
  • Lista ţărilor
  • Pe 7 zile
  • Temperatura apei
  • Meteo pe hartă
  • Widget-uri
  • user-avatar
    Intrare

    Meteo pe oră la Stafford

    Astăzi, 11 Decembrie, Miercuri

    Timp Temperatura Precipitaţii Vânt Presiune Umiditate
    00:00 +3°C° 0 mm 5 m/s 745 mmHg 82%
    01:00 +3°C° 0 mm 5 m/s 745 mmHg 82%
    02:00 +3°C° 0 mm 4 m/s 745 mmHg 83%
    03:00 +3°C° 0 mm 4 m/s 745 mmHg 83%
    04:00 +3°C° 0 mm 4 m/s 745 mmHg 84%
    05:00 +3°C° 0 mm 4 m/s 745 mmHg 85%
    06:00 +3°C° 0 mm 4 m/s 744 mmHg 86%
    07:00 +3°C° 0 mm 4 m/s 744 mmHg 86%
    08:00 +3°C° 0 mm 4 m/s 743 mmHg 87%
    09:00 +2°C° 0 mm 5 m/s 743 mmHg 88%
    10:00 +3°C° 0 mm 5 m/s 743 mmHg 85%
    11:00 +3°C° 0 mm 5 m/s 742 mmHg 82%
    12:00 +5°C° 0 mm 4 m/s 742 mmHg 79%
    13:00 +4°C° 0.5 mm 4 m/s 742 mmHg 82%
    14:00 +4°C° 0.5 mm 4 m/s 741 mmHg 86%
    15:00 +3°C° 0.5 mm 3 m/s 741 mmHg 89%
    16:00 +3°C° 0 mm 3 m/s 741 mmHg 89%
    17:00 +2°C° 0 mm 3 m/s 742 mmHg 89%
    18:00 +2°C° 0 mm 3 m/s 742 mmHg 88%
    19:00 +2°C° 0 mm 3 m/s 742 mmHg 87%
    20:00 0°C° 0 mm 4 m/s 743 mmHg 86%
    21:00 0°C° 0 mm 4 m/s 743 mmHg 85%
    22:00 0°C° 0 mm 4 m/s 743 mmHg 85%
    23:00 0°C° 0 mm 4 m/s 743 mmHg 86%

    Mâine, 12 Decembrie, Joi

    Timp Temperatura Precipitaţii Vânt Presiune Umiditate
    00:00 0°C° 0 mm 4 m/s 743 mmHg 86%
    01:00 -1°C° 0 mm 4 m/s 743 mmHg 87%
    02:00 0°C° 0 mm 3 m/s 742 mmHg 88%
    03:00 0°C° 0 mm 3 m/s 742 mmHg 89%
    04:00 0°C° 0 mm 3 m/s 741 mmHg 89%
    05:00 -1°C° 0 mm 4 m/s 741 mmHg 89%
    06:00 -1°C° 0 mm 4 m/s 740 mmHg 88%
    07:00 -1°C° 0 mm 4 m/s 739 mmHg 87%
    08:00 0°C° 0 mm 5 m/s 738 mmHg 87%
    09:00 0°C° 0 mm 5 m/s 737 mmHg 86%
    10:00 +1°C° 0.1 mm 6 m/s 735 mmHg 87%
    11:00 +2°C° 0.1 mm 7 m/s 733 mmHg 87%
    12:00 +2°C° 0.1 mm 8 m/s 731 mmHg 88%
    13:00 +2°C° 1 mm 8 m/s 729 mmHg 90%
    14:00 +4°C° 1 mm 7 m/s 727 mmHg 92%
    15:00 +4°C° 1 mm 7 m/s 725 mmHg 94%
    16:00 +4°C° 1.3 mm 6 m/s 724 mmHg 94%
    17:00 +5°C° 1.3 mm 5 m/s 722 mmHg 95%
    18:00 +6°C° 1.3 mm 5 m/s 721 mmHg 96%
    19:00 +4°C° 0.6 mm 6 m/s 720 mmHg 94%
    20:00 +4°C° 0.6 mm 7 m/s 719 mmHg 91%
    21:00 +4°C° 0.6 mm 8 m/s 719 mmHg 89%
    22:00 +4°C° 0.9 mm 8 m/s 719 mmHg 89%
    23:00 +2°C° 0.9 mm 9 m/s 719 mmHg 89%

    Poimâine, 13 Decembrie, Vineri

    Timp Temperatura Precipitaţii Vânt Presiune Umiditate
    00:00 +2°C° 0.9 mm 10 m/s 718 mmHg 90%
    01:00 +2°C° 0.3 mm 10 m/s 719 mmHg 90%
    02:00 +2°C° 0.3 mm 10 m/s 719 mmHg 89%
    03:00 +2°C° 0.3 mm 10 m/s 719 mmHg 89%
    04:00 +2°C° 0.8 mm 11 m/s 719 mmHg 88%
    05:00 +2°C° 0.8 mm 11 m/s 720 mmHg 87%
    06:00 +2°C° 0.8 mm 11 m/s 721 mmHg 86%
    07:00 +3°C° 0.3 mm 10 m/s 722 mmHg 85%
    08:00 +3°C° 0.3 mm 9 m/s 722 mmHg 84%
    09:00 +5°C° 0.3 mm 8 m/s 723 mmHg 83%
    10:00 +5°C° 0 mm 8 m/s 724 mmHg 82%
    11:00 +5°C° 0 mm 7 m/s 725 mmHg 81%
    12:00 +5°C° 0 mm 7 m/s 726 mmHg 80%
    13:00 +5°C° 0 mm 7 m/s 726 mmHg 81%
    14:00 +5°C° 0 mm 7 m/s 727 mmHg 81%
    15:00 +5°C° 0 mm 7 m/s 728 mmHg 81%
    16:00 +4°C° 0 mm 6 m/s 728 mmHg 83%
    17:00 +3°C° 0 mm 5 m/s 728 mmHg 85%
    18:00 +4°C° 0 mm 4 m/s 729 mmHg 87%
    19:00 +4°C° 0.1 mm 4 m/s 728 mmHg 88%
    20:00 +4°C° 0.1 mm 4 m/s 727 mmHg 89%
    21:00 +4°C° 0.1 mm 4 m/s 726 mmHg 90%
    22:00 +3°C° 0.7 mm 5 m/s 724 mmHg 90%
    23:00 +5°C° 0.7 mm 5 m/s 723 mmHg 90%

    14 Decembrie, Sâmbătă

    Timp Temperatura Precipitaţii Vânt Presiune Umiditate
    00:00 +4°C° 0.7 mm 6 m/s 722 mmHg 91%
    01:00 +4°C° 0.3 mm 8 m/s 722 mmHg 88%
    02:00 +2°C° 0.3 mm 10 m/s 723 mmHg 84%
    03:00 +1°C° 0.3 mm 13 m/s 723 mmHg 81%
    04:00 +2°C° 0.1 mm 12 m/s 724 mmHg 76%
    05:00 0°C° 0.1 mm 12 m/s 726 mmHg 71%
    06:00 +1°C° 0.1 mm 11 m/s 727 mmHg 66%
    07:00 0°C° 0 mm 10 m/s 728 mmHg 66%
    08:00 0°C° 0 mm 9 m/s 728 mmHg 67%
    09:00 0°C° 0 mm 9 m/s 729 mmHg 67%
    10:00 0°C° 0 mm 9 m/s 730 mmHg 65%
    11:00 +1°C° 0 mm 10 m/s 730 mmHg 63%
    12:00 +1°C° 0 mm 11 m/s 731 mmHg 61%
    13:00 +1°C° 0.1 mm 11 m/s 731 mmHg 62%
    14:00 0°C° 0.1 mm 10 m/s 732 mmHg 62%
    15:00 0°C° 0.1 mm 10 m/s 733 mmHg 62%
    16:00 0°C° 0 mm 9 m/s 733 mmHg 63%
    17:00 -1°C° 0 mm 8 m/s 734 mmHg 64%
    18:00 -1°C° 0 mm 7 m/s 734 mmHg 65%
    19:00 -2°C° 0 mm 6 m/s 735 mmHg 67%
    20:00 -2°C° 0 mm 6 m/s 735 mmHg 69%
    21:00 -1°C° 0 mm 5 m/s 735 mmHg 70%
    22:00 -1°C° 0.4 mm 5 m/s 735 mmHg 78%
    23:00 -1°C° 0.4 mm 5 m/s 734 mmHg 86%

    15 Decembrie, Duminică

    Timp Temperatura Precipitaţii Vânt Presiune Umiditate
    00:00 -1°C° 0.4 mm 4 m/s 733 mmHg 93%
    01:00 0°C° 1.1 mm 4 m/s 732 mmHg 95%
    02:00 0°C° 1.1 mm 4 m/s 730 mmHg 96%
    03:00 +1°C° 1.1 mm 4 m/s 729 mmHg 98%
    04:00 +1°C° 1.2 mm 5 m/s 729 mmHg 94%
    05:00 -1°C° 1.2 mm 6 m/s 729 mmHg 91%
    06:00 -1°C° 1.2 mm 7 m/s 729 mmHg 88%
    07:00 -1°C° 0.1 mm 7 m/s 731 mmHg 88%
    08:00 -1°C° 0.1 mm 6 m/s 732 mmHg 89%
    09:00 -1°C° 0.1 mm 6 m/s 734 mmHg 89%
    10:00 -1°C° 0 mm 6 m/s 735 mmHg 85%
    11:00 +1°C° 0 mm 5 m/s 736 mmHg 81%
    12:00 +2°C° 0 mm 5 m/s 737 mmHg 76%
    13:00 +2°C° 0.1 mm 5 m/s 737 mmHg 80%
    14:00 +2°C° 0.1 mm 5 m/s 737 mmHg 85%
    15:00 +2°C° 0.1 mm 5 m/s 737 mmHg 89%
    16:00 +1°C° 0.2 mm 5 m/s 737 mmHg 88%
    17:00 +1°C° 0.2 mm 5 m/s 738 mmHg 87%
    18:00 +1°C° 0.2 mm 5 m/s 738 mmHg 86%
    19:00 +1°C° 0 mm 5 m/s 738 mmHg 87%
    20:00 +1°C° 0 mm 4 m/s 738 mmHg 87%
    21:00 0°C° 0 mm 4 m/s 739 mmHg 88%
    22:00 +1°C° 0.2 mm 5 m/s 739 mmHg 88%
    23:00 +1°C° 0.2 mm 5 m/s 739 mmHg 87%

    16 Decembrie, Luni

    Timp Temperatura Precipitaţii Vânt Presiune Umiditate
    00:00 +1°C° 0.2 mm 5 m/s 740 mmHg 87%
    01:00 0°C° 0 mm 4 m/s 740 mmHg 87%
    02:00 +1°C° 0 mm 3 m/s 740 mmHg 87%
    03:00 0°C° 0 mm 3 m/s 740 mmHg 87%
    04:00 +1°C° 0 mm 3 m/s 740 mmHg 87%
    05:00 +1°C° 0 mm 3 m/s 739 mmHg 87%
    06:00 0°C° 0 mm 4 m/s 739 mmHg 87%
    07:00 +2°C° 0.5 mm 3 m/s 739 mmHg 90%
    08:00 +2°C° 0.5 mm 3 m/s 739 mmHg 93%
    09:00 +3°C° 0.5 mm 3 m/s 739 mmHg 96%
    10:00 +3°C° 0 mm 3 m/s 739 mmHg 95%
    11:00 +4°C° 0 mm 3 m/s 739 mmHg 94%
    12:00 +4°C° 0 mm 3 m/s 739 mmHg 93%
    13:00 +4°C° 0 mm 3 m/s 739 mmHg 93%
    14:00 +5°C° 0 mm 2 m/s 738 mmHg 94%
    15:00 +5°C° 0 mm 2 m/s 738 mmHg 95%
    16:00 +4°C° 0 mm 2 m/s 738 mmHg 94%
    17:00 +4°C° 0 mm 2 m/s 738 mmHg 93%
    18:00 +2°C° 0 mm 3 m/s 738 mmHg 93%
    19:00 +2°C° 0 mm 3 m/s 738 mmHg 92%
    20:00 +2°C° 0 mm 3 m/s 738 mmHg 92%
    21:00 +2°C° 0 mm 3 m/s 738 mmHg 92%
    22:00 +1°C° 0 mm 3 m/s 739 mmHg 91%
    23:00 +1°C° 0 mm 3 m/s 739 mmHg 90%
    Arată mai mult